This is the latest recevied weather packets stored in our database for station/object KI5NXU. If no packets are shown the sender has not sent any weather packets the latest 1 day(s).
| Time | Temp. | Humidity | Pressure | Rain* | Wind** | Luminosity | Snow |
|---|---|---|---|---|---|---|---|
| 1777998273 | 27.78° C | 61% | 1004.1 hPa | 0 mm | 4.47 m/s, 230° | 371 W/m² | - |
| 1777997970 | 27.78° C | 62% | 1004.3 hPa | 0 mm | 4.02 m/s, 252° | 367 W/m² | - |
| 1777997666 | 27.78° C | 64% | 1004.6 hPa | 0 mm | 3.13 m/s, 229° | 412 W/m² | - |
| 1777997364 | 27.78° C | 63% | 1004.6 hPa | 0 mm | 3.13 m/s, 237° | 594 W/m² | - |
| 1777997062 | 27.78° C | 63% | 1004.6 hPa | 0 mm | 3.58 m/s, 222° | 413 W/m² | - |
| 1777996758 | 27.78° C | 66% | 1004.5 hPa | 0 mm | 2.68 m/s, 221° | 452 W/m² | - |
| 1777996455 | 27.22° C | 68% | 1004.4 hPa | 0 mm | 2.24 m/s, 223° | 867 W/m² | - |
| 1777996152 | 27.78° C | 66% | 1004.3 hPa | 0 mm | 3.13 m/s, 216° | 398 W/m² | - |
| 1777995848 | 27.22° C | 67% | 1003.9 hPa | 0 mm | 4.02 m/s, 208° | 714 W/m² | - |
| 1777995544 | 27.22° C | 69% | 1004 hPa | 0 mm | 3.58 m/s, 229° | 426 W/m² | - |
| 1777995241 | 26.67° C | 67% | 1003.9 hPa | 0 mm | 2.24 m/s, 168° | 734 W/m² | - |
| 1777994938 | 26.67° C | 69% | 1003.8 hPa | 0 mm | 3.13 m/s, 226° | 628 W/m² | - |
| 1777994636 | 26.67° C | 69% | 1003.9 hPa | 0 mm | 3.13 m/s, 226° | 568 W/m² | - |
| 1777994335 | 26.11° C | 71% | 1004.1 hPa | 0 mm | 2.68 m/s, 217° | 500 W/m² | - |
| 1777994032 | 25.56° C | 70% | 1004.1 hPa | 0 mm | 3.58 m/s, 207° | 503 W/m² | - |
| 1777993729 | 25.56° C | 71% | 1004.1 hPa | 0 mm | 4.02 m/s, 222° | 264 W/m² | - |
| 1777993427 | 25.56° C | 72% | 1004.2 hPa | 0 mm | 2.68 m/s, 222° | 237 W/m² | - |
| 1777993126 | 25.56° C | 72% | 1003.9 hPa | 0 mm | 3.13 m/s, 236° | 266 W/m² | - |
| 1777992825 | 25° C | 72% | 1004 hPa | 0 mm | 4.92 m/s, 221° | 302 W/m² | - |
| 1777992522 | 25° C | 72% | 1003.8 hPa | 0 mm | 6.26 m/s, 220° | 363 W/m² | - |
| 1777992221 | 24.44° C | 74% | 1003.8 hPa | 0 mm | 4.02 m/s, 230° | 174 W/m² | - |
| 1777991917 | 25° C | 74% | 1004 hPa | 0 mm | 4.92 m/s, 223° | 174 W/m² | - |
| 1777991615 | 25° C | 74% | 1003.9 hPa | 0 mm | 3.58 m/s, 220° | 267 W/m² | - |
| 1777991312 | 24.44° C | 74% | 1004 hPa | 0 mm | 4.47 m/s, 214° | 373 W/m² | - |
| 1777991009 | 24.44° C | 75% | 1003.6 hPa | 0 mm | 3.58 m/s, 221° | 342 W/m² | - |
* Rain latest hour (hover to see other rain measurements)
** Current wind speed in m/s (hover to see current wind gust speed)